| time (UTC) | temp F | wind direction | speed knots | gust knots | rain 1hr in | rain 24hr in | rain mn in | humidity % | barometer mb |
| 20260508100029 | 58 | 276 | 3.5 | 6.1 | 0.01 | 0.08 | 0.03 | 86 | 1015.1 |
| 20260508094527 | 58 | 0 | 0.0 | 3.5 | 0.01 | 0.07 | 0.02 | 87 | 1014.5 |
| 20260508093028 | 57 | 297 | 0.9 | 1.7 | 0.01 | 0.07 | 0.02 | 87 | 1014.6 |
| 20260508091532 | 57 | 297 | 0.9 | 6.1 | 0.00 | 0.07 | 0.01 | 86 | 1015.1 |
| 20260508090031 | 57 | 225 | 0.0 | 4.3 | 0.00 | 0.07 | 0.01 | 87 | 1015.1 |
| 20260508084528 | 56 | 286 | 3.5 | 6.1 | 0.00 | 0.06 | 0.00 | 87 | 1015.0 |
| 20260508083031 | 56 | 0 | 0.0 | 1.7 | 0.00 | 0.06 | 0.00 | 87 | 1014.4 |
| 20260508081537 | 56 | 279 | 4.3 | 7.0 | 0.00 | 0.06 | 0.00 | 87 | 1014.7 |
| 20260508080031 | 56 | 221 | 0.0 | 2.6 | 0.00 | 0.06 | 0.00 | 87 | 1014.2 |
| 20260508074527 | 56 | 248 | 2.6 | 6.1 | 0.00 | 0.06 | 0.00 | 88 | 1014.2 |
| 20260508073028 | 56 | 263 | 1.7 | 3.5 | 0.00 | 0.06 | 0.00 | 88 | 1013.8 |
| 20260508071528 | 56 | 278 | 1.7 | 5.2 | 0.00 | 0.06 | 0.00 | 88 | 1013.7 |
| 20260508070054 | 56 | 262 | 0.9 | 6.1 | 0.00 | 0.06 | 0.00 | 89 | 1013.6 |
| 20260508064534 | 55 | 254 | 0.9 | 3.5 | 0.00 | 0.05 | 0.00 | 89 | 1013.5 |
| 20260508063028 | 55 | 250 | 1.7 | 5.2 | 0.00 | 0.05 | 0.00 | 89 | 1013.5 |
| 20260508061528 | 54 | 254 | 0.9 | 2.6 | 0.00 | 0.05 | 0.00 | 90 | 1013.4 |
| 20260508060032 | 53 | 0 | 0.0 | 0.0 | 0.00 | 0.05 | 0.00 | 89 | 1013.1 |
| 20260508054530 | 53 | 0 | 0.0 | 0.0 | 0.00 | 0.05 | 0.00 | 89 | 1012.9 |
| 20260508053030 | 53 | 0 | 0.0 | 2.6 | 0.00 | 0.05 | 0.00 | 89 | 1012.9 |
| 20260508051528 | 53 | 0 | 0.0 | 0.0 | 0.00 | 0.05 | 0.00 | 89 | 1012.9 |
| 20260508050030 | 54 | 0 | 0.0 | 1.7 | 0.00 | 0.05 | 0.00 | 89 | 1012.6 |
| 20260508044528 | 54 | 278 | 1.7 | 6.1 | 0.00 | 0.05 | 0.00 | 89 | 1012.5 |
| 20260508043048 | 54 | 259 | 1.7 | 5.2 | 0.00 | 0.05 | 0.00 | 89 | 1012.5 |
| 20260508041536 | 54 | 271 | 2.6 | 6.1 | 0.00 | 0.05 | 0.00 | 89 | 1012.4 |
| 20260508040030 | 54 | 271 | 2.6 | 5.2 | 0.00 | 0.05 | 0.00 | 89 | 1012.5 |
| 20260508034529 | 54 | 268 | 0.0 | 2.6 | 0.00 | 0.05 | 0.00 | 88 | 1012.1 |
| 20260508033032 | 54 | 268 | 0.9 | 2.6 | 0.00 | 0.05 | 0.00 | 88 | 1012.1 |
| 20260508031528 | 54 | 281 | 0.0 | 3.5 | 0.00 | 0.05 | 0.00 | 88 | 1012.2 |
| 20260508030042 | 53 | 0 | 0.0 | 0.0 | 0.00 | 0.05 | 0.00 | 88 | 1012.6 |
| 20260508024534 | 53 | 0 | 0.0 | 0.0 | 0.00 | 0.05 | 0.00 | 88 | 1012.6 |
| 20260508023032 | 53 | 0 | 0.0 | 0.0 | 0.00 | 0.05 | 0.00 | 88 | 1012.8 |
| 20260508021530 | 53 | 0 | 0.0 | 0.0 | 0.00 | 0.05 | 0.00 | 87 | 1012.7 |
| 20260508020027 | 53 | 0 | 0.0 | 0.0 | 0.00 | 0.05 | 0.00 | 88 | 1012.8 |
| 20260508014531 | 53 | 0 | 0.0 | 0.0 | 0.00 | 0.05 | 0.00 | 87 | 1012.9 |
| 20260508013029 | 54 | 0 | 0.0 | 0.0 | 0.00 | 0.05 | 0.00 | 87 | 1012.9 |
| 20260508011532 | 53 | 0 | 0.0 | 0.0 | 0.00 | 0.05 | 0.00 | 87 | 1013.2 |
| 20260508010031 | 53 | 0 | 0.0 | 1.7 | 0.00 | 0.05 | 0.00 | 87 | 1013.3 |
| 20260508004529 | 53 | 99 | 0.0 | 3.5 | 0.00 | 0.05 | 0.00 | 87 | 1013.5 |
| 20260508003030 | 54 | 99 | 0.9 | 3.5 | 0.00 | 0.05 | 0.00 | 86 | 1013.8 |
| 20260508001531 | 54 | 59 | 0.0 | 1.7 | 0.00 | 0.05 | 0.00 | 86 | 1014.0 |
| 20260508000029 | 54 | 59 | 0.9 | 2.6 | 0.00 | 0.05 | 0.00 | 86 | 1014.1 |
| 20260507234536 | 54 | 59 | 0.9 | 2.6 | 0.00 | 0.05 | 0.00 | 86 | 1014.1 |
| 20260507233028 | 54 | 59 | 0.9 | 1.7 | 0.00 | 0.05 | 0.00 | 85 | 1014.3 |
| 20260507231530 | 55 | 0 | 0.0 | 1.7 | 0.00 | 0.05 | 0.00 | 85 | 1014.3 |
| 20260507230028 | 55 | 0 | 0.0 | 0.9 | 0.00 | 0.05 | 0.00 | 85 | 1014.5 |
| 20260507224529 | 55 | 0 | 0.0 | 2.6 | 0.00 | 0.05 | 0.00 | 85 | 1014.4 |
| 20260507223028 | 56 | 0 | 0.0 | 2.6 | 0.00 | 0.05 | 0.00 | 84 | 1014.4 |
| 20260507221528 | 56 | 0 | 0.0 | 2.6 | 0.00 | 0.05 | 0.00 | 84 | 1014.4 |
| 20260507220030 | 57 | 0 | 0.0 | 0.9 | 0.00 | 0.05 | 0.00 | 84 | 1014.2 |
| 20260507214530 | 57 | 0 | 0.0 | 0.0 | 0.00 | 0.05 | 0.05 | 83 | 1014.0 |
| 20260507213031 | 57 | 95 | 0.0 | 3.5 | 0.00 | 0.05 | 0.05 | 83 | 1014.0 |
| 20260507211530 | 58 | 82 | 1.7 | 4.3 | 0.00 | 0.05 | 0.05 | 83 | 1013.8 |
| 20260507210029 | 58 | 101 | 2.6 | 6.1 | 0.00 | 0.05 | 0.05 | 82 | 1013.6 |
| 20260507204530 | 58 | 71 | 3.5 | 7.8 | 0.00 | 0.05 | 0.05 | 81 | 1013.8 |
| 20260507203032 | 58 | 87 | 7.0 | 10.4 | 0.00 | 0.05 | 0.05 | 81 | 1013.7 |
| 20260507201537 | 58 | 70 | 3.5 | 10.4 | 0.00 | 0.05 | 0.05 | 82 | 1013.6 |
| 20260507200027 | 58 | 85 | 4.3 | 7.0 | 0.00 | 0.05 | 0.05 | 82 | 1013.4 |
| 20260507194528 | 58 | 88 | 5.2 | 10.4 | 0.00 | 0.05 | 0.05 | 82 | 1013.1 |
| 20260507193032 | 59 | 117 | 6.1 | 10.4 | 0.00 | 0.05 | 0.05 | 83 | 1012.8 |
| 20260507191534 | 59 | 98 | 6.1 | 9.6 | 0.00 | 0.05 | 0.05 | 82 | 1012.5 |
| 20260507190031 | 59 | 76 | 6.1 | 10.4 | 0.00 | 0.05 | 0.05 | 82 | 1012.2 |
| 20260507184528 | 59 | 97 | 4.3 | 10.4 | 0.00 | 0.05 | 0.05 | 82 | 1012.1 |
| 20260507183038 | 60 | 94 | 6.1 | 10.4 | 0.00 | 0.05 | 0.05 | 82 | 1011.8 |
| 20260507181530 | 60 | 107 | 6.1 | 9.6 | 0.00 | 0.05 | 0.05 | 81 | 1011.8 |
| 20260507180032 | 61 | 73 | 3.5 | 7.8 | 0.00 | 0.05 | 0.05 | 80 | 1011.7 |
| 20260507174535 | 61 | 94 | 7.0 | 10.4 | 0.00 | 0.05 | 0.05 | 79 | 1012.0 |
| 20260507173034 | 61 | 188 | 1.7 | 4.3 | 0.00 | 0.05 | 0.05 | 78 | 1012.0 |
| 20260507171531 | 62 | 107 | 4.3 | 12.2 | 0.00 | 0.05 | 0.05 | 77 | 1011.6 |
| 20260507170030 | 63 | 146 | 1.7 | 6.1 | 0.00 | 0.05 | 0.05 | 76 | 1011.5 |
| 20260507164531 | 64 | 248 | 1.7 | 3.5 | 0.00 | 0.05 | 0.05 | 76 | 1011.5 |
| 20260507163031 | 64 | 310 | 3.5 | 8.7 | 0.00 | 0.05 | 0.05 | 78 | 1011.3 |
| 20260507161529 | 63 | 263 | 3.5 | 7.8 | 0.00 | 0.05 | 0.05 | 80 | 1011.2 |
| 20260507160035 | 63 | 321 | 4.3 | 8.7 | 0.00 | 0.05 | 0.05 | 81 | 1011.0 |
| 20260507154528 | 63 | 266 | 5.2 | 7.8 | 0.00 | 0.05 | 0.05 | 83 | 1011.2 |
| 20260507153031 | 62 | 298 | 4.3 | 7.8 | 0.00 | 0.05 | 0.05 | 84 | 1011.3 |
| 20260507151531 | 62 | 294 | 3.5 | 6.1 | 0.00 | 0.05 | 0.05 | 84 | 1011.4 |
| 20260507150030 | 63 | 268 | 0.0 | 0.9 | 0.00 | 0.05 | 0.05 | 84 | 1011.3 |
| 20260507144528 | 62 | 0 | 0.0 | 2.6 | 0.02 | 0.05 | 0.05 | 83 | 1011.2 |
| 20260507143050 | 62 | 0 | 0.9 | 2.6 | 0.03 | 0.05 | 0.05 | 84 | 1011.0 |
| 20260507141547 | 61 | 0 | 0.0 | 3.5 | 0.04 | 0.05 | 0.05 | 83 | 1010.7 |
| 20260507140032 | 60 | 180 | 3.5 | 8.7 | 0.03 | 0.03 | 0.03 | 84 | 1011.0 |
| 20260507134528 | 61 | 140 | 7.0 | 12.2 | 0.03 | 0.03 | 0.03 | 84 | 1011.1 |
| 20260507133028 | 62 | 150 | 4.3 | 8.7 | 0.01 | 0.01 | 0.01 | 83 | 1011.4 |
| 20260507131527 | 62 | 150 | 3.5 | 7.8 | 0.00 | 0.00 | 0.00 | 80 | 1011.4 |
| 20260507130040 | 66 | 150 | 4.3 | 9.6 | 0.00 | 0.00 | 0.00 | 73 | 1011.5 |
| 20260507124530 | 67 | 126 | 6.1 | 10.4 | 0.00 | 0.00 | 0.00 | 70 | 1011.4 |
| 20260507123030 | 67 | 94 | 6.1 | 13.0 | 0.00 | 0.00 | 0.00 | 69 | 1011.5 |
| 20260507121530 | 67 | 145 | 5.2 | 11.3 | 0.00 | 0.00 | 0.00 | 69 | 1011.6 |
| 20260507120030 | 67 | 101 | 5.2 | 12.2 | 0.00 | 0.00 | 0.00 | 69 | 1011.8 |
| 20260507114531 | 67 | 64 | 5.2 | 11.3 | 0.00 | 0.00 | 0.00 | 70 | 1011.8 |
| 20260507113030 | 66 | 138 | 7.0 | 12.2 | 0.00 | 0.00 | 0.00 | 71 | 1011.7 |
| 20260507111530 | 66 | 127 | 7.8 | 13.9 | 0.00 | 0.00 | 0.00 | 72 | 1011.9 |
| 20260507110030 | 66 | 105 | 6.1 | 13.9 | 0.00 | 0.00 | 0.00 | 72 | 1012.0 |
| 20260507104527 | 67 | 64 | 8.7 | 14.8 | 0.00 | 0.00 | 0.00 | 70 | 1012.1 |
| 20260507103032 | 66 | 93 | 10.4 | 14.8 | 0.00 | 0.00 | 0.00 | 72 | 1012.1 |
| 20260507101528 | 66 | 81 | 9.6 | 15.6 | 0.00 | 0.00 | 0.00 | 72 | 1012.1 |